GFSFLT2_sfc_thetae_000.txt.gz
Theta_e
324 325 326 326 326 326 327 328 331 321 311 305 312 314 314 314 316 317 316 319 318 312 315 311 312 311 304 306
324 324 325 326 326 326 327 329 330 317 306 312 315 312 314 313 317 319 319 322 320 316 314 312 309 304 304 299
323 324 324 325 325 328 329 330 318 314 305 314 309 313 314 311 315 316 321 317 318 314 314 304 301 302 296 298
322 323 323 322 325 325 323 322 318 306 306 304 310 311 314 313 312 314 312 311 310 306 304 301 294 297 296 299
321 322 318 317 311 310 311 307 308 306 307 309 311 308 312 311 312 310 304 308 302 299 302 303 303 303 300 299
321 321 316 313 313 313 302 311 310 309 310 310 303 306 312 306 307 302 306 304 298 305 307 307 304 302 299 298
320 315 313 314 320 316 304 308 309 307 307 308 303 304 308 307 305 303 303 301 305 307 305 304 302 301 298 298
311 314 311 318 322 319 298 301 302 306 307 308 302 310 309 309 306 302 304 304 306 303 302 300 302 296 303 302
312 310 316 321 321 314 292 303 302 310 308 303 305 305 313 309 302 302 304 301 301 300 300 300 303 300 304 302
315 319 321 319 314 299 292 300 303 300 301 303 304 306 305 309 311 303 303 302 305 304 302 305 304 304 301 301
315 326 322 312 298 293 304 299 299 301 300 300 300 303 301 299 297 294 295 300 301 303 305 300 303 301 296 289
319 325 317 302 292 300 302 305 302 301 297 301 301 301 300 297 301 300 297 295 292 300 303 300 297 297 296 290
321 322 309 294 297 302 304 302 301 298 298 301 301 300 299 298 301 301 295 295 295 304 303 303 302 298 293 299
320 314 303 297 301 306 306 305 297 301 297 301 299 299 299 303 301 304 304 300 294 302 302 303 302 299 302 292
318 305 297 300 304 309 309 302 300 298 298 298 299 299 299 304 306 305 305 302 298 298 298 296 295 295 294 296
304 304 300 302 305 306 309 306 304 302 299 299 299 299 298 303 307 307 301 304 299 293 295 301 302 300 296 297
296 297 301 300 303 303 305 303 301 304 304 300 296 300 301 306 307 305 302 303 297 290 293 296 299 296 298 298

GFSFLT2_sfc_thetae_003.txt.gz
Theta_e
324 324 325 326 327 326 326 327 330 323 309 304 308 309 312 310 314 315 313 315 314 308 306 302 307 305 300 301
323 323 324 325 325 325 326 328 329 314 302 309 307 309 310 310 314 314 317 315 315 311 307 306 304 299 297 292
322 323 323 324 323 325 327 329 316 309 301 314 306 309 309 309 312 313 314 317 314 306 305 297 293 294 288 292
321 322 322 322 322 323 321 319 318 301 304 301 307 308 307 312 310 310 311 307 303 298 297 293 287 290 290 293
321 321 316 311 307 306 308 304 306 302 304 306 308 304 309 309 309 305 298 302 295 292 295 296 297 296 295 294
320 319 314 308 308 307 298 308 308 308 309 306 300 303 308 302 302 297 300 297 293 299 302 301 299 297 294 293
318 311 307 310 314 311 299 304 307 306 305 305 301 300 305 302 299 297 298 294 299 304 301 300 298 297 294 294
311 310 307 314 313 311 293 298 302 304 305 306 300 306 306 304 300 297 298 297 303 301 299 297 298 293 300 299
303 308 312 314 311 307 284 301 301 308 305 300 303 304 308 305 299 299 298 296 297 297 297 298 299 295 300 298
309 310 317 313 307 293 285 297 300 299 298 300 301 305 303 305 305 300 299 297 302 300 299 301 301 301 298 296
310 318 316 305 291 285 300 296 297 298 297 296 297 301 298 295 292 289 289 295 298 299 302 297 299 297 291 284
311 314 309 296 284 296 297 302 301 298 294 297 296 297 296 292 296 293 290 288 287 296 299 298 293 293 292 284
314 311 301 287 290 296 302 300 300 294 293 297 296 295 293 294 297 297 290 289 290 299 299 300 299 293 290 295
311 306 296 293 295 302 303 302 294 297 292 295 294 294 292 297 297 301 300 294 290 297 299 299 299 295 296 288
309 297 289 293 300 305 305 300 296 295 295 294 295 293 294 299 302 302 301 298 292 293 295 293 293 292 292 292
297 295 291 297 302 300 303 302 301 299 297 297 295 295 295 298 304 303 298 300 295 290 293 297 299 297 294 295
289 289 295 298 300 300 300 301 300 303 302 298 294 296 298 304 304 303 300 302 295 288 290 292 294 292 295 294

GFSFLT2_sfc_thetae_006.txt.gz
Theta_e
323 323 324 325 325 325 325 327 329 324 307 303 306 310 311 308 311 313 311 313 312 307 304 300 305 304 299 300
322 322 324 324 325 325 326 328 328 313 300 309 306 307 308 307 311 312 314 314 314 310 305 304 301 298 296 290
321 322 323 323 324 325 327 328 315 306 301 314 302 307 306 306 309 310 311 314 312 305 304 296 292 292 286 290
322 322 322 321 322 320 319 319 317 301 303 300 305 306 305 309 308 308 308 305 301 297 295 292 285 288 288 290
321 321 313 310 305 305 306 302 304 300 302 304 306 302 307 306 307 303 296 300 293 291 294 295 294 292 291 291
320 319 312 307 306 306 298 306 306 306 308 303 299 300 306 300 300 295 298 295 291 297 299 298 296 294 291 290
318 310 305 307 312 309 296 301 306 304 304 303 299 298 303 300 297 295 296 291 296 301 299 297 296 295 293 291
310 306 307 313 311 308 291 297 301 303 304 304 299 305 305 302 297 295 296 295 301 299 297 296 297 292 297 297
300 307 311 312 309 305 282 299 300 306 302 299 300 302 305 303 296 297 295 293 296 296 296 297 297 294 299 297
307 308 314 311 305 292 283 296 299 297 296 298 298 303 302 304 303 298 297 296 300 298 297 300 299 299 296 294
307 312 313 302 290 284 297 294 296 297 295 294 295 298 296 294 291 287 286 291 294 298 300 295 298 296 290 283
308 311 304 294 283 293 295 301 301 298 293 295 295 295 294 291 294 292 288 286 286 294 298 297 294 292 291 284
313 310 297 286 289 292 300 299 299 293 291 295 294 293 292 292 295 295 288 287 288 297 298 300 298 292 288 293
308 304 294 291 292 301 300 300 292 296 291 293 293 292 291 295 295 298 297 291 287 295 298 297 296 295 295 286
305 296 289 291 297 301 301 297 294 294 294 293 294 292 293 298 302 301 301 294 290 292 294 291 291 291 291 290
296 292 290 295 301 299 300 300 299 299 295 294 294 293 293 296 304 302 297 300 296 289 292 297 298 297 294 294
287 288 292 294 296 293 292 294 295 298 296 294 290 296 297 303 304 300 296 299 293 288 290 293 293 291 293 294

GFSFLT2_sfc_thetae_009.txt.gz
Theta_e
322 322 323 324 325 325 325 326 327 322 305 303 305 307 311 306 309 311 309 312 310 305 303 299 303 302 298 299
322 322 323 324 324 325 324 327 327 309 298 309 304 307 306 305 308 310 312 312 312 308 304 303 299 296 294 290
322 322 323 323 323 324 325 327 311 305 300 312 300 304 304 304 306 308 309 313 310 303 302 295 291 291 286 288
321 322 321 320 321 320 320 319 315 297 301 299 302 304 303 307 305 306 306 303 300 295 293 291 286 286 287 288
320 320 312 308 303 302 303 297 299 296 300 302 304 301 305 304 305 302 294 298 292 290 293 294 291 290 289 288
320 318 311 306 303 304 297 305 304 305 307 302 297 299 305 298 298 294 296 293 290 295 297 297 295 292 289 289
319 309 303 306 311 308 295 299 304 303 303 304 298 297 302 298 296 293 294 290 294 300 297 294 293 293 291 290
309 303 306 311 310 306 290 295 300 302 302 303 298 304 303 300 296 293 293 293 298 297 295 294 295 290 296 295
298 305 309 312 307 303 281 297 298 305 301 298 298 301 304 301 294 295 294 292 294 294 294 295 296 293 297 295
305 307 314 308 304 289 282 294 298 296 295 297 297 302 300 302 300 296 295 294 298 297 296 298 298 298 294 293
305 307 310 301 289 284 296 293 295 297 293 292 294 296 295 292 289 286 285 290 292 296 298 293 296 294 289 282
311 309 302 294 282 291 293 300 299 298 292 293 293 294 292 290 294 290 286 285 286 292 296 294 292 291 291 285
312 307 296 286 286 292 296 296 296 291 290 294 295 294 290 290 293 292 287 286 286 295 297 297 296 290 287 294
305 302 292 290 291 298 298 297 290 293 288 292 292 292 291 295 297 301 300 291 286 294 296 296 295 293 294 286
304 297 288 289 295 300 297 295 292 292 292 290 291 291 292 297 301 300 300 297 291 292 294 292 292 292 289 289
294 290 289 293 299 295 293 293 294 295 292 290 290 292 292 295 297 299 294 298 295 289 292 298 300 297 292 290
286 286 288 289 292 289 289 291 290 292 290 289 284 291 288 296 295 292 293 296 291 283 285 290 291 288 290 290

GFSFLT2_sfc_thetae_012.txt.gz
Theta_e
323 323 323 324 324 325 324 325 326 318 302 299 304 306 309 304 307 309 307 310 309 304 301 298 301 300 297 298
322 322 323 323 324 324 324 325 326 306 297 306 304 306 306 304 306 308 310 310 310 306 302 302 298 294 293 290
321 322 323 322 323 323 324 326 308 304 297 313 299 302 303 302 304 306 307 311 307 301 300 294 291 290 286 287
321 320 320 320 319 319 320 318 312 294 298 297 301 302 300 305 304 304 304 302 298 294 292 291 285 286 285 287
320 320 312 307 300 299 301 295 296 294 298 301 303 300 303 303 303 301 292 296 291 287 290 292 292 288 287 287
319 318 309 304 301 302 297 303 302 303 306 303 298 297 304 296 296 291 294 292 288 293 295 294 294 292 289 289
318 308 303 305 309 305 293 297 303 301 302 304 299 296 301 297 294 291 292 289 291 298 295 292 291 291 289 289
306 301 306 311 309 304 289 294 298 300 301 302 297 302 302 298 294 291 291 291 296 295 292 292 292 287 293 293
299 304 308 312 306 301 281 296 297 304 300 297 297 299 302 299 292 293 293 290 292 292 292 293 294 291 296 293
304 307 308 307 302 289 280 293 297 296 295 295 296 300 298 300 298 294 293 294 296 295 295 297 296 296 292 291
305 307 306 299 288 283 294 293 295 298 293 292 293 295 294 290 289 285 283 288 291 295 296 291 293 293 288 281
311 309 300 293 282 290 291 298 297 296 291 295 293 294 291 289 292 288 285 283 284 290 294 291 288 288 288 282
309 304 296 285 285 290 295 294 294 290 290 293 293 293 290 289 293 296 287 286 284 296 299 298 294 288 285 290
305 300 292 289 290 296 296 295 288 291 287 290 290 289 289 296 297 299 298 293 288 295 296 298 296 291 292 285
304 296 287 288 294 297 292 291 291 290 291 287 288 287 289 294 297 295 298 294 291 290 294 292 291 292 290 288
292 288 288 290 295 291 291 290 291 291 288 288 285 287 289 292 294 292 290 294 291 284 286 292 296 294 292 291
285 281 284 286 291 288 288 288 287 290 288 285 281 286 287 292 292 290 287 291 284 277 279 282 288 286 290 290

GFSFLT2_sfc_thetae_018.txt.gz
Theta_e
322 323 323 324 324 324 324 325 326 317 307 304 315 314 314 312 314 314 313 316 316 312 311 306 309 308 304 307
322 322 322 323 323 324 324 324 325 313 304 312 315 312 313 310 313 315 315 317 317 313 310 311 308 303 303 300
321 322 322 322 322 322 323 325 314 310 303 318 307 309 312 308 311 314 315 315 315 310 309 303 301 302 296 299
320 321 321 319 323 323 321 319 314 304 307 304 307 308 310 311 309 311 309 309 308 304 304 301 293 296 296 297
320 320 317 318 311 309 310 302 303 301 304 309 309 307 309 309 310 307 301 305 300 298 300 301 300 298 296 296
319 317 317 311 310 311 303 307 307 307 309 311 305 305 310 303 303 299 302 301 298 301 299 299 299 298 296 296
318 316 315 312 317 313 304 303 306 307 307 308 303 304 306 304 300 298 299 297 299 300 298 298 297 298 296 297
313 314 315 318 319 313 302 300 303 305 306 307 302 307 307 304 301 298 299 299 301 298 298 298 299 296 300 299
313 314 313 317 317 313 292 301 302 309 307 303 303 305 307 304 299 299 299 299 298 298 297 299 300 297 301 299
316 314 317 316 313 299 291 299 304 302 303 303 302 305 305 306 304 299 300 300 303 300 300 300 300 301 299 300
313 317 317 311 299 294 300 297 298 301 300 300 301 302 300 302 299 295 295 298 298 300 302 299 302 301 298 291
313 315 312 304 292 294 296 300 299 299 297 299 299 299 298 297 302 300 297 294 291 297 302 299 296 298 296 290
312 313 307 297 295 296 296 296 297 294 295 298 296 295 297 298 296 297 294 293 292 300 299 301 300 296 293 297
311 311 304 294 296 296 293 296 292 296 291 293 292 292 291 296 295 294 297 295 286 293 298 298 300 293 295 285
312 307 298 297 298 295 295 294 293 291 293 291 291 288 290 291 293 292 295 292 290 290 292 288 287 287 287 289
301 299 296 295 296 292 295 294 295 293 291 289 286 287 289 291 293 293 288 291 287 282 285 290 291 290 289 287
291 289 290 291 292 292 292 291 290 292 292 288 284 287 289 293 293 291 288 290 286 280 283 288 291 286 287 287

GFSFLT2_sfc_thetae_021.txt.gz
Theta_e
323 323 324 324 325 325 325 326 327 320 310 308 316 316 315 313 315 315 313 316 317 312 313 308 312 309 305 308
322 323 323 323 323 324 324 325 326 317 307 315 318 314 315 312 314 316 314 318 318 314 311 312 308 305 306 301
321 322 322 322 323 323 323 325 317 312 306 316 310 312 314 310 312 314 316 315 315 311 310 305 303 304 299 301
320 321 321 321 323 322 320 318 314 307 307 306 310 310 313 312 310 311 311 310 309 306 306 303 296 298 298 299
320 320 319 319 315 312 313 306 305 305 307 311 312 309 311 310 310 309 303 308 301 300 302 303 302 300 298 297
320 319 320 313 312 315 306 310 309 309 311 312 306 308 312 306 305 302 305 303 301 303 302 302 300 300 299 299
318 316 317 315 320 317 308 307 309 308 308 311 305 306 308 306 304 302 302 301 304 303 300 301 300 301 300 300
312 319 317 320 322 317 305 302 305 307 309 309 304 309 310 306 305 301 303 303 304 300 301 300 302 298 302 301
316 317 316 321 322 316 295 303 305 313 310 306 306 307 310 307 302 302 301 300 301 300 299 300 302 298 302 300
319 318 322 321 317 302 294 301 306 304 305 306 306 308 307 309 308 302 303 302 306 302 301 302 302 303 302 302
316 320 322 314 302 296 302 300 301 303 302 302 303 304 303 303 300 296 297 301 300 302 305 301 304 302 297 291
319 318 316 306 295 298 299 303 301 300 299 301 301 299 300 299 300 299 298 296 294 299 302 299 297 298 296 290
316 318 310 300 299 299 298 298 299 297 298 300 296 296 299 299 297 297 293 293 294 300 299 301 299 296 292 296
317 315 306 298 298 297 296 297 295 296 293 294 294 293 293 296 295 296 298 295 286 294 297 297 299 297 294 286
315 309 302 300 298 296 297 296 294 292 294 292 291 290 291 294 295 294 296 293 289 290 296 291 290 290 288 290
304 304 300 296 296 293 296 296 296 294 292 291 288 289 290 293 295 295 289 292 288 283 287 293 293 291 289 288
296 294 295 292 294 293 293 292 292 293 292 290 286 289 290 296 295 292 290 291 287 282 287 290 292 289 291 289

GFSFLT2_sfc_thetae_024.txt.gz
Theta_e
323 323 324 324 325 325 326 326 328 319 311 307 316 316 315 314 315 314 314 316 316 312 312 309 313 310 303 305
322 322 323 324 324 325 325 327 328 316 306 315 318 313 315 313 315 317 316 320 318 314 311 312 307 303 303 298
321 322 323 323 324 325 325 326 316 313 306 318 310 312 314 310 312 315 320 314 316 312 312 304 301 303 295 299
321 321 322 322 324 322 320 318 314 306 307 306 310 310 314 312 311 312 311 311 309 305 304 301 293 295 295 296
320 321 319 315 313 311 313 306 306 306 308 311 312 309 311 310 310 309 304 310 301 298 300 301 300 298 296 295
320 320 317 315 312 315 305 311 309 310 311 312 306 308 312 305 307 302 306 303 299 303 303 303 301 299 297 297
319 314 317 315 321 318 308 306 310 309 308 311 306 306 309 307 304 302 303 300 303 305 301 301 299 299 297 297
313 319 316 320 323 319 303 302 305 308 310 309 304 310 310 306 305 301 302 301 304 301 301 299 300 295 301 299
316 315 317 322 323 316 295 303 305 314 310 306 307 307 311 308 301 301 302 299 301 300 298 299 301 296 302 299
319 318 322 321 317 301 292 301 307 305 305 306 306 309 308 311 310 303 303 301 306 303 300 303 303 303 300 298
315 321 321 314 301 295 303 300 301 303 302 301 302 303 303 300 296 292 296 300 301 303 304 297 304 300 294 286
319 321 317 306 296 299 299 303 301 300 299 300 300 298 299 298 297 295 294 293 292 299 300 297 294 294 293 287
318 318 310 299 297 298 298 297 300 297 298 300 296 296 297 298 296 295 289 290 293 299 298 299 298 294 289 292
318 314 305 298 296 296 297 297 295 296 294 294 293 293 294 296 295 295 296 292 283 292 297 298 297 294 295 285
313 309 300 298 295 296 298 295 294 292 294 291 290 290 292 294 295 294 295 292 287 289 292 291 288 289 287 288
302 303 298 298 296 294 296 296 296 294 292 291 289 289 291 294 296 294 288 291 286 281 285 292 293 290 287 287
295 293 295 293 295 293 293 294 293 293 292 290 287 290 290 296 296 292 289 290 285 279 284 289 291 289 290 290

GFSFLT2_sfc_thetae_027.txt.gz
Theta_e
322 323 324 324 324 325 326 325 327 319 309 303 311 309 312 310 312 313 310 312 311 307 306 302 307 304 300 301
321 322 323 324 325 324 325 327 327 312 300 312 310 311 312 310 311 312 314 314 313 309 305 306 304 297 296 291
321 321 322 323 324 325 327 327 314 308 300 317 308 308 309 308 309 310 311 314 312 305 304 298 293 295 288 291
320 322 322 322 324 323 320 317 314 300 303 303 308 308 306 310 309 308 308 308 303 297 296 294 287 287 287 290
320 321 318 310 308 305 308 302 303 303 306 307 309 306 308 307 307 304 296 302 294 290 293 295 295 293 291 291
320 319 314 311 308 308 300 309 308 307 310 309 304 305 308 301 301 296 299 295 292 298 302 300 297 295 292 291
318 311 312 312 316 313 301 305 308 307 307 309 303 302 306 302 298 296 297 292 298 303 300 298 296 294 292 292
311 314 311 316 317 313 294 299 305 306 308 309 303 309 308 304 300 297 297 295 301 300 297 296 296 290 298 297
307 310 313 315 314 309 287 302 304 312 307 304 305 306 309 304 298 298 296 294 296 296 296 297 299 294 299 296
311 312 316 314 310 295 287 300 306 303 302 304 304 308 306 306 305 300 299 296 301 299 297 300 299 300 297 293
309 313 313 307 293 288 300 298 299 301 299 297 299 300 297 293 290 286 288 295 296 300 299 294 298 294 287 281
312 313 309 298 288 297 296 302 300 298 296 296 297 295 296 292 293 290 287 285 286 296 295 294 290 289 288 282
311 309 302 291 289 292 295 294 296 293 295 298 292 292 292 293 291 290 284 285 288 293 297 296 293 289 284 288
309 306 296 293 289 294 295 295 291 292 288 289 288 286 290 293 293 293 291 286 280 289 295 295 293 289 291 282
305 300 292 290 292 295 296 293 291 290 290 287 286 285 290 292 294 292 292 286 283 283 287 286 283 284 282 283
293 291 288 293 296 294 295 294 293 291 288 288 286 286 289 290 294 292 286 286 282 277 281 288 291 287 283 283
285 285 289 292 293 293 292 292 291 291 290 287 283 287 290 295 294 290 286 286 279 273 279 285 288 285 286 286

GFSFLT2_sfc_thetae_030.txt.gz
Theta_e
321 322 323 324 324 325 325 325 326 319 306 301 309 308 310 308 309 311 309 311 310 304 304 300 305 302 297 298
321 321 322 323 324 325 325 326 326 311 297 310 308 309 309 308 309 310 311 311 310 308 303 304 302 296 294 290
320 321 322 323 323 325 326 327 312 305 299 316 305 306 307 306 307 308 309 313 309 303 302 296 291 291 286 289
320 321 322 322 323 321 320 316 314 298 301 301 306 306 304 308 307 306 306 306 300 295 293 292 285 286 286 288
319 320 316 310 305 301 305 300 301 301 304 305 307 304 306 305 305 301 295 300 293 289 292 293 294 291 289 289
319 318 312 308 306 306 299 307 305 306 308 307 301 303 307 299 299 294 296 294 290 297 298 298 296 294 290 290
317 310 310 310 315 310 298 303 306 304 305 307 301 301 304 301 296 295 295 291 296 301 299 296 294 292 290 290
311 311 309 314 315 311 293 297 303 305 307 307 301 307 306 302 299 295 295 293 299 298 296 294 294 289 296 296
305 308 312 313 311 307 286 300 302 309 305 302 303 304 307 303 296 297 295 292 294 294 294 295 297 293 297 295
309 310 313 312 308 292 285 299 304 301 300 302 301 305 301 302 301 297 296 296 299 297 296 298 298 297 293 290
308 311 312 306 290 288 299 296 297 299 297 296 296 298 294 290 288 284 285 292 295 297 297 292 295 292 286 280
310 311 306 296 286 295 293 299 297 297 295 294 294 295 294 290 291 288 285 283 284 291 294 292 288 288 286 280
309 308 300 290 289 290 293 292 295 291 293 295 290 293 289 290 289 289 283 281 284 291 295 294 291 286 283 287
307 304 295 291 287 292 294 294 289 290 288 287 286 285 288 291 291 291 289 284 278 286 291 293 290 287 289 282
305 298 290 288 290 293 295 292 289 288 287 285 284 283 288 290 292 290 289 284 281 282 285 284 282 284 282 282
291 286 286 291 296 292 293 292 291 289 286 286 284 285 288 289 293 290 285 285 281 277 279 285 289 285 282 281
285 283 287 290 291 291 290 291 290 290 288 285 281 285 289 294 292 289 284 284 278 273 276 283 286 283 284 284

GFSFLT2_sfc_thetae_033.txt.gz
Theta_e
321 322 322 323 324 324 324 324 326 320 302 300 308 306 308 306 307 309 307 309 308 301 302 298 303 301 295 297
321 321 322 323 324 324 324 325 325 309 296 307 307 307 308 306 308 308 309 309 308 305 301 302 299 295 292 289
320 320 321 322 323 325 325 326 310 303 296 313 304 305 305 304 306 306 307 311 307 301 300 294 290 290 286 287
319 320 321 321 322 321 319 316 312 296 300 300 304 305 303 306 304 304 304 303 298 293 292 290 283 285 285 287
319 320 315 308 303 300 303 298 299 299 302 305 305 302 305 304 303 300 293 298 293 288 291 293 292 290 288 288
318 317 311 305 303 303 298 305 304 304 306 305 299 302 306 298 297 292 295 293 289 295 297 296 294 292 289 288
317 310 309 309 313 308 297 301 305 302 303 305 299 300 303 299 295 293 293 290 294 299 297 294 293 291 288 288
311 310 308 312 313 308 292 296 301 303 305 305 300 306 304 300 297 293 294 292 297 297 294 293 293 287 294 294
306 308 310 312 309 305 283 299 301 308 303 301 302 302 305 303 295 296 294 290 293 293 292 293 296 292 296 293
308 309 311 310 305 289 282 297 302 299 298 300 299 303 299 299 299 295 293 294 298 296 294 296 296 294 290 288
307 310 310 303 289 284 297 295 296 297 296 294 295 296 292 288 286 283 284 289 293 295 295 291 293 291 284 278
308 310 304 296 285 293 292 296 295 296 293 292 292 294 293 288 289 286 283 282 282 289 294 290 286 286 284 278
309 306 299 289 287 290 292 291 294 290 291 292 289 291 288 287 287 286 281 280 281 289 292 291 289 285 281 285
306 302 294 290 287 291 293 292 289 289 289 286 285 285 287 289 289 289 287 282 277 284 289 291 289 285 288 281
302 296 289 287 288 292 294 290 288 287 286 285 283 283 286 289 291 288 287 283 280 280 283 282 281 282 280 281
291 284 286 289 295 291 292 291 289 288 285 285 282 284 286 288 291 288 283 284 280 276 279 284 286 283 280 280
284 282 286 289 290 290 288 289 288 288 287 284 280 284 287 292 291 287 284 283 277 273 276 282 284 282 283 283

GFSFLT2_sfc_thetae_036.txt.gz
Theta_e
321 321 322 323 323 324 324 324 325 318 300 298 306 306 307 305 306 307 305 307 306 299 300 295 301 299 294 295
321 321 321 322 323 323 324 325 324 309 294 305 306 305 306 305 307 307 308 307 307 304 299 300 297 293 291 287
320 320 321 322 323 324 325 325 307 300 293 312 302 303 303 302 305 306 307 310 306 299 299 292 288 289 285 285
319 320 321 321 321 321 318 315 310 295 299 298 302 303 301 304 303 303 303 302 296 292 291 289 282 285 286 286
318 319 314 306 301 299 302 295 297 297 300 304 304 302 304 303 302 299 292 296 292 287 289 291 291 289 287 286
318 317 309 304 300 300 297 303 302 302 304 303 298 302 304 297 296 291 293 292 287 293 295 295 293 291 287 286
317 309 307 307 312 306 297 300 303 301 302 303 298 300 301 297 294 292 292 289 293 298 295 293 291 289 287 287
310 308 306 311 311 306 291 294 299 301 303 303 299 304 304 299 296 292 293 291 296 295 293 291 292 286 293 293
305 307 308 311 308 303 280 297 299 306 301 300 300 301 303 302 294 294 293 289 291 292 291 292 294 291 293 291
307 307 309 308 303 289 281 295 300 298 297 298 297 301 297 298 297 293 293 292 296 294 293 295 294 293 289 287
306 309 308 300 288 283 295 293 294 296 295 292 293 295 292 287 286 284 282 288 291 292 294 289 291 289 281 277
307 308 303 295 282 290 291 295 294 295 292 291 290 293 291 287 287 285 282 282 283 288 292 288 285 285 283 278
307 305 298 287 285 289 291 290 293 289 289 290 288 289 287 286 286 285 279 279 280 287 289 289 288 283 281 284
305 301 294 291 286 289 292 291 288 288 287 286 283 284 285 288 288 288 285 281 277 283 287 289 287 284 287 279
301 296 290 287 287 292 293 289 288 286 286 284 282 282 284 288 290 287 285 281 279 279 282 281 280 281 280 280
291 283 286 288 294 290 292 290 288 287 285 284 281 283 285 287 290 287 281 282 278 275 278 282 284 282 279 280
284 282 284 288 289 289 287 288 286 287 286 283 280 284 286 291 289 286 283 282 277 274 277 280 283 280 282 281

GFSFLT2_sfc_thetae_042.txt.gz
Theta_e
322 322 322 322 323 324 324 324 325 320 309 307 315 315 313 312 312 314 311 313 312 308 309 305 308 306 303 305
322 321 321 322 323 323 324 325 325 316 305 312 316 311 313 312 314 315 315 315 315 311 307 309 305 303 303 300
321 321 320 321 322 324 325 326 316 310 303 318 309 311 312 309 312 313 315 314 313 309 308 304 301 302 298 298
320 319 320 320 322 323 319 319 313 306 307 304 309 309 312 311 309 310 310 310 309 305 305 302 295 296 297 298
318 318 317 315 311 308 311 304 304 304 305 310 311 310 311 309 309 308 303 306 303 300 301 302 301 300 299 298
317 317 317 311 308 312 304 308 307 308 309 310 305 310 312 305 304 301 303 303 300 302 302 301 300 300 298 298
317 316 316 314 319 315 305 305 308 307 308 309 305 307 309 306 303 301 301 300 301 302 301 300 299 299 297 297
314 317 314 318 320 315 301 300 304 307 308 309 305 308 308 306 304 300 301 301 302 301 300 299 300 296 299 298
316 313 315 320 319 314 290 301 304 312 309 305 306 306 306 307 302 302 302 299 299 299 298 299 300 298 298 297
318 315 318 317 314 298 290 299 304 303 303 303 302 305 303 305 303 301 302 300 302 300 300 300 299 298 296 295
313 317 317 314 298 293 301 298 299 302 301 299 299 301 298 296 297 294 296 297 298 298 299 297 298 297 294 291
316 316 315 304 293 295 298 300 300 300 298 297 298 299 297 295 293 293 295 293 292 296 296 296 294 294 293 290
312 315 309 297 296 297 299 298 298 297 297 295 295 296 296 295 293 292 291 291 290 293 293 295 295 293 292 294
311 314 304 297 297 295 296 297 297 296 295 296 293 294 293 295 292 292 294 290 288 290 292 294 295 294 295 290
309 309 299 297 294 295 297 296 297 295 296 295 293 292 292 293 295 291 293 291 288 288 290 291 292 291 291 290
303 300 300 295 296 294 296 295 296 295 294 292 291 291 291 293 294 293 289 290 289 288 289 290 291 291 290 292
299 298 294 293 294 293 293 293 292 293 293 291 289 290 292 294 292 291 290 291 289 288 288 289 291 289 290 289

GFSFLT2_sfc_thetae_048.txt.gz
Theta_e
323 323 323 323 323 324 324 324 325 322 316 308 316 315 316 315 317 317 316 315 314 311 313 311 314 309 304 305
321 322 322 322 323 324 324 325 326 319 309 315 317 314 315 314 318 319 319 320 318 316 312 312 308 303 302 298
321 322 322 322 322 323 324 326 319 317 305 317 311 313 315 311 314 316 321 315 318 314 313 304 300 302 295 298
321 321 321 321 323 321 321 320 319 308 307 306 311 312 315 314 312 314 313 314 310 305 304 301 293 296 297 299
320 320 318 315 312 312 314 307 306 306 307 311 314 312 313 311 312 310 304 310 302 298 302 304 303 300 298 297
320 320 315 312 312 315 304 310 309 309 311 312 307 310 314 307 307 302 306 304 297 305 306 305 302 301 298 298
320 314 314 316 321 320 306 306 309 308 308 310 307 308 311 309 305 303 303 299 304 305 303 304 300 300 298 298
310 316 316 320 323 322 301 300 304 307 309 311 306 312 311 309 306 302 305 303 305 303 303 300 302 297 302 301
314 313 318 323 323 318 290 303 305 313 310 307 308 308 312 310 304 304 305 302 303 302 300 301 303 299 303 300
317 320 321 322 317 299 291 300 306 303 303 306 306 308 307 310 309 303 304 302 306 304 302 303 303 303 299 299
314 322 321 316 299 293 304 300 301 304 303 303 303 304 303 301 299 296 296 300 300 301 302 299 302 300 295 288
320 322 317 306 294 299 301 305 303 303 300 303 302 302 301 298 300 297 294 293 292 299 301 299 295 298 294 287
319 319 310 298 297 301 303 302 302 299 300 301 299 300 300 298 296 295 292 292 292 297 298 299 298 295 290 295
318 314 306 300 300 301 302 303 298 301 298 299 296 298 298 298 296 295 296 294 288 296 295 297 297 294 296 288
314 309 299 299 299 301 303 300 300 300 300 299 299 298 295 297 298 295 296 294 291 290 293 292 293 291 289 290
303 306 302 300 297 299 301 300 300 300 299 299 298 298 295 297 298 297 294 293 290 287 291 293 295 293 292 291
298 300 300 298 299 298 299 298 298 298 299 298 294 296 296 298 298 296 293 294 289 285 286 290 292 289 292 292

GFSFLT2_sfc_thetae_051.txt.gz
Theta_e
323 323 323 323 323 323 324 325 325 319 314 309 310 309 313 311 315 317 315 313 311 306 306 304 308 304 299 301
322 322 322 322 323 324 323 325 326 316 308 312 309 311 312 312 315 316 318 315 314 311 307 305 303 298 296 292
322 321 322 322 322 323 324 325 317 312 301 316 308 310 311 311 312 313 315 314 315 308 305 297 293 294 288 291
321 321 321 321 321 321 321 318 317 306 306 304 309 310 310 313 310 311 311 310 304 298 298 294 287 290 290 292
320 320 317 311 307 306 311 305 305 303 304 308 310 307 311 310 309 305 298 304 296 292 295 298 298 295 292 291
321 319 312 309 308 308 300 308 307 306 308 308 304 307 311 303 303 297 300 297 292 299 303 301 299 297 293 293
319 312 310 312 316 314 299 305 308 305 306 308 305 304 308 304 300 298 297 293 300 304 302 299 298 296 293 293
308 311 308 316 317 315 292 298 303 306 307 309 304 310 308 306 302 296 299 297 302 301 299 298 298 292 299 299
309 310 314 316 314 310 284 300 303 311 307 304 305 307 309 306 300 299 297 294 298 297 297 299 300 296 300 297
310 313 315 314 310 293 287 299 303 301 300 303 303 307 305 305 304 299 299 298 302 299 298 301 300 300 296 294
309 314 314 308 291 286 301 297 298 301 299 298 300 301 299 295 293 289 288 295 296 298 300 295 298 296 289 282
311 313 309 298 287 296 297 303 302 301 297 299 298 299 297 293 293 291 288 288 287 294 298 294 291 293 290 283
311 309 302 290 290 296 301 300 300 295 295 298 296 296 293 292 290 290 286 285 287 294 295 295 294 290 285 289
309 306 297 294 293 299 300 300 294 296 292 294 292 292 292 294 292 293 290 287 282 292 293 294 294 290 292 285
305 300 291 291 296 299 301 297 295 296 295 294 292 291 291 294 296 293 291 287 285 285 289 287 288 287 285 286
296 294 292 295 298 298 299 298 296 296 293 293 291 291 291 292 295 293 289 288 285 282 285 288 291 289 287 286
290 289 292 295 296 296 296 296 295 296 294 292 288 291 293 296 294 293 289 289 283 279 282 287 289 284 287 288

GFSFLT2_sfc_thetae_054.txt.gz
Theta_e
322 323 323 323 323 323 323 324 324 321 313 310 309 308 311 309 313 317 315 314 312 306 305 303 306 304 299 300
322 322 322 322 323 323 323 324 325 317 307 314 308 309 311 310 314 315 316 315 314 309 305 305 301 297 296 291
321 322 322 322 322 322 323 324 317 311 304 315 306 308 310 309 311 311 313 313 313 306 303 296 292 293 287 290
321 321 321 321 320 320 320 318 317 305 307 303 307 309 308 311 308 308 309 307 303 298 297 293 286 288 288 291
320 320 315 309 305 305 309 303 305 303 303 306 309 306 310 309 307 303 297 302 296 291 293 297 295 294 291 291
320 319 312 307 307 305 299 308 307 305 306 306 303 305 309 301 301 296 299 295 292 296 301 300 298 295 292 291
319 312 307 310 313 312 297 303 306 303 304 306 303 303 306 303 298 296 295 292 298 302 300 298 297 295 292 291
307 307 304 312 313 311 291 296 301 304 304 308 302 308 306 304 300 295 297 295 300 300 297 296 296 290 298 297
309 308 312 313 312 306 283 298 301 309 304 303 304 305 307 304 298 298 296 293 296 296 296 297 298 294 299 295
308 310 313 312 307 290 285 296 302 299 298 301 302 305 302 303 302 297 296 295 300 298 297 299 298 299 294 292
307 312 311 305 287 286 298 295 296 299 297 296 298 299 297 293 291 288 287 293 295 296 298 293 296 294 287 280
310 309 306 297 285 294 295 301 300 298 294 298 296 297 295 290 291 290 287 287 286 293 296 293 291 291 288 282
311 308 300 289 289 293 298 298 298 293 293 296 296 294 291 289 289 288 286 284 287 293 294 293 293 289 285 288
307 304 296 293 291 297 298 299 292 295 291 292 291 290 290 292 291 291 289 285 282 290 292 293 292 288 291 284
304 299 289 290 294 298 299 296 294 293 293 292 291 289 290 292 294 291 289 286 284 283 287 286 286 286 284 284
294 290 291 293 298 296 297 296 295 294 292 292 289 289 290 291 293 292 287 286 284 281 283 287 289 288 285 284
289 287 290 293 295 295 294 294 293 294 292 290 286 290 291 294 293 292 288 287 281 278 281 286 288 283 285 286

GFSFLT2_sfc_thetae_057.txt.gz
Theta_e
322 322 323 323 323 323 323 323 324 320 310 308 308 305 309 308 314 318 313 314 312 306 304 303 304 303 299 299
321 322 322 322 322 323 323 323 324 315 306 317 307 307 309 308 312 317 318 318 312 309 306 303 299 296 294 290
320 321 322 322 322 323 323 323 315 309 303 314 304 307 307 307 309 310 312 316 314 307 304 295 291 292 287 289
319 321 321 321 321 319 318 318 316 304 306 302 307 308 306 309 307 306 307 306 301 298 296 291 286 288 288 289
320 320 316 307 303 304 307 303 303 302 304 308 310 307 308 306 305 302 297 301 295 290 294 295 294 293 290 290
320 319 311 304 305 303 298 308 308 306 308 307 305 306 309 301 299 294 298 295 291 295 298 299 297 294 291 290
319 312 305 307 313 309 295 302 306 305 305 305 304 302 307 300 296 295 294 291 296 300 299 296 295 293 291 290
308 306 305 308 311 308 289 295 301 304 305 308 302 307 305 302 298 294 296 294 298 298 296 294 295 289 296 296
307 308 311 312 310 304 281 296 302 307 303 302 302 304 306 303 296 296 295 292 295 295 294 295 297 293 298 294
308 310 311 310 304 289 283 294 300 298 297 300 300 303 300 302 300 296 295 294 298 296 296 297 297 298 293 290
307 309 309 302 287 286 296 293 294 297 295 294 296 298 295 291 290 286 286 292 293 295 297 293 295 293 286 281
309 308 304 296 284 292 293 299 297 296 293 296 294 295 293 288 289 289 286 285 285 292 294 291 289 289 286 281
310 306 298 288 288 292 296 296 296 291 291 294 294 293 289 289 288 287 286 283 285 291 293 292 292 287 285 287
307 302 295 292 291 295 297 297 291 293 290 291 290 289 289 291 290 290 288 284 281 288 291 291 291 288 290 283
304 297 288 290 293 296 297 294 293 292 292 291 290 288 289 291 292 290 288 285 283 282 286 284 284 286 284 283
293 288 290 292 298 295 296 295 294 293 291 290 288 287 289 290 292 291 286 285 282 280 283 286 288 286 284 283
288 287 289 292 293 293 292 293 291 293 291 289 286 289 289 292 292 290 287 286 280 277 280 284 286 282 285 285

GFSFLT2_sfc_thetae_063.txt.gz
Theta_e
321 321 322 322 323 323 323 323 323 319 310 304 318 311 308 309 314 317 313 316 317 312 312 306 308 305 303 303
320 320 321 321 321 322 322 323 323 317 301 316 318 313 308 310 317 319 317 318 319 314 309 308 302 300 300 300
320 318 319 320 321 322 322 322 316 310 303 318 306 307 309 308 311 314 316 317 315 308 307 300 298 297 297 295
317 318 320 320 320 320 317 318 315 304 306 301 306 307 310 309 308 312 310 308 305 301 298 299 295 296 293 293
317 317 315 306 300 302 307 300 304 304 303 306 309 307 311 308 308 305 300 302 299 296 300 301 298 297 295 294
317 318 311 300 302 306 299 306 305 306 309 309 303 305 309 302 303 297 301 299 295 300 302 300 299 297 294 294
317 313 307 303 311 307 299 301 305 305 305 308 303 303 307 303 299 298 298 294 298 300 299 297 296 296 294 294
310 306 304 310 311 307 291 295 300 304 307 308 302 307 308 304 301 296 297 297 300 298 297 296 297 293 298 297
305 308 312 311 311 305 282 297 301 309 307 302 303 303 307 305 299 297 298 295 297 297 297 297 298 295 298 296
312 311 311 308 307 292 283 295 301 299 300 302 302 303 302 302 302 297 298 297 300 298 298 297 298 297 293 292
306 309 307 303 291 287 296 292 295 297 297 298 298 298 294 292 292 290 291 294 295 297 299 295 297 294 292 287
311 311 304 296 286 292 292 298 297 296 293 297 296 296 295 290 291 291 288 287 287 294 295 295 293 292 292 286
308 307 299 287 288 292 295 296 296 292 293 295 295 293 291 290 290 291 289 288 288 293 293 294 295 291 289 290
306 301 294 292 291 294 296 297 290 293 290 292 292 292 291 292 291 291 292 289 285 290 292 294 293 293 292 287
302 296 288 289 293 296 297 295 293 292 292 291 291 290 290 292 292 291 291 288 288 287 290 290 289 289 287 285
294 288 290 292 297 294 295 295 294 294 293 291 290 289 290 291 292 292 288 288 286 283 286 288 291 290 288 287
289 288 290 292 293 293 291 293 292 293 292 289 288 290 290 292 293 291 289 288 284 281 284 287 289 287 287 285

GFSFLT2_sfc_thetae_069.txt.gz
Theta_e
320 321 321 322 322 322 322 323 324 320 311 308 317 321 319 315 322 322 319 322 327 321 321 314 314 313 310 311
319 319 320 320 320 321 322 323 323 317 307 317 318 315 317 317 316 319 322 324 324 324 318 315 311 310 312 306
318 318 319 319 320 321 323 322 317 313 305 320 312 315 318 312 316 318 321 323 322 318 315 311 308 308 306 308
317 318 319 319 321 321 320 318 315 307 310 307 314 315 318 314 314 316 314 316 317 313 312 310 302 306 306 309
317 318 317 317 310 309 310 305 306 305 309 314 313 310 313 313 314 313 309 312 310 307 312 313 312 310 309 307
318 318 316 310 309 311 303 311 308 307 310 311 306 309 314 308 308 305 312 307 306 313 316 314 311 308 307 307
317 315 314 312 316 315 305 307 310 308 308 310 306 306 311 309 306 305 310 306 309 311 314 307 305 306 305 304
313 315 312 315 319 318 300 300 304 307 310 311 304 311 313 309 305 304 308 310 307 306 307 308 308 305 308 304
316 314 317 319 318 313 288 301 304 313 311 307 306 306 312 310 303 304 307 302 302 303 304 304 308 305 304 302
317 316 318 315 313 299 288 298 304 303 304 306 305 307 307 311 311 304 305 304 308 306 304 304 304 305 303 302
316 318 316 312 298 291 300 296 298 302 302 301 301 303 302 302 300 297 299 301 301 303 305 301 303 303 300 293
319 318 313 304 291 298 296 302 300 300 298 300 301 301 300 299 301 301 300 296 293 301 302 302 300 300 300 293
319 317 308 297 296 298 300 300 298 296 297 298 300 300 300 299 299 300 298 298 294 299 300 302 302 299 295 300
317 313 304 299 300 301 300 300 295 298 295 298 297 298 298 299 298 298 301 299 293 298 298 301 301 300 301 294
316 307 298 300 301 302 301 299 299 298 298 296 298 297 297 298 298 298 300 300 298 294 297 297 298 297 296 296
303 305 300 301 298 301 303 301 302 301 300 299 298 299 297 299 298 298 297 298 299 293 294 296 297 298 298 298
299 302 304 300 301 300 300 299 299 300 301 300 297 299 298 297 298 298 297 299 296 290 290 293 295 294 296 297

GFSFLT2_sfc_thetae_075.txt.gz
Theta_e
321 321 320 320 321 321 322 322 323 319 309 304 315 315 315 313 314 316 313 313 314 312 317 312 314 311 307 309
320 318 318 319 321 321 321 322 322 315 302 315 315 314 315 313 314 314 315 319 318 314 313 313 310 306 306 299
319 318 319 319 320 321 322 323 315 310 302 320 312 315 314 310 310 311 311 318 316 312 316 305 300 303 296 300
318 319 320 320 320 319 319 319 315 302 306 306 310 311 312 312 307 309 307 308 309 305 307 301 294 296 297 301
318 319 315 309 303 305 309 302 305 303 306 309 311 307 310 307 307 304 299 305 300 298 304 306 306 304 301 300
319 319 313 307 307 307 300 309 308 308 310 311 303 306 309 301 301 298 303 300 297 305 309 310 307 306 302 301
318 313 309 310 314 312 300 305 310 308 309 310 304 304 306 303 301 299 300 297 302 309 308 306 305 304 301 300
311 312 310 316 313 312 293 300 304 307 308 310 304 309 311 307 301 298 301 301 307 306 305 304 307 300 306 305
307 306 313 315 312 308 283 301 303 311 308 305 306 305 313 308 300 301 301 301 303 303 303 306 307 302 305 303
309 311 314 314 310 296 286 298 303 302 301 303 304 306 306 309 308 302 304 304 308 305 301 304 306 304 299 298
307 313 312 305 292 287 301 296 298 302 301 299 301 300 300 299 295 292 294 299 299 302 306 298 302 299 293 285
314 312 306 297 285 294 295 302 301 300 297 300 299 298 296 295 300 297 294 290 288 297 304 300 294 295 292 286
314 311 299 289 291 293 300 298 298 294 294 299 298 296 294 295 295 298 292 292 289 298 299 301 299 294 290 295
313 306 295 293 294 299 302 301 293 296 293 295 295 294 294 297 298 298 297 295 286 295 297 298 297 294 296 287
309 300 290 293 298 301 301 298 297 296 296 296 295 294 295 297 297 297 297 294 293 290 293 291 291 291 290 290
296 296 292 298 301 301 301 299 298 298 296 295 294 294 296 298 298 297 293 295 291 285 288 291 293 292 291 290
289 290 295 298 300 299 298 297 296 299 298 297 294 297 296 299 298 298 294 293 289 282 284 287 289 288 291 292

GFSFLT2_sfc_thetae_078.txt.gz
Theta_e
320 320 319 319 320 320 321 322 322 317 308 303 313 313 313 311 312 312 309 313 309 307 311 310 314 310 308 307
319 319 320 320 321 321 321 322 322 314 301 313 313 313 314 312 314 314 312 314 312 311 309 311 309 306 304 298
318 319 319 320 321 321 322 322 315 308 300 318 310 315 314 309 311 310 309 312 315 309 309 302 300 302 295 298
318 318 320 320 320 318 318 318 315 303 305 305 310 311 310 312 307 306 306 304 305 301 305 299 294 294 296 299
318 318 316 309 304 302 308 302 303 303 305 309 313 308 310 308 306 302 294 302 297 296 301 305 303 301 300 299
318 318 312 306 307 307 299 308 307 307 309 310 303 307 308 299 299 294 299 300 295 303 308 309 306 303 299 298
318 312 309 309 314 309 298 303 309 307 308 309 304 303 306 301 298 296 299 296 300 307 306 306 304 303 300 298
309 308 308 315 313 310 292 298 303 305 307 310 302 309 310 306 302 297 299 299 304 305 303 303 305 299 305 304
304 306 310 312 312 307 282 301 302 310 306 304 304 304 313 307 300 300 300 297 301 301 301 303 306 302 305 304
308 310 311 310 308 292 284 298 304 302 302 304 303 305 306 308 307 302 302 300 306 304 301 304 305 304 298 297
301 311 310 304 291 285 298 295 298 301 299 298 300 299 299 297 295 292 291 298 299 303 306 298 302 300 295 286
312 311 305 297 284 293 293 301 300 300 295 299 298 298 295 294 299 298 294 291 288 297 303 299 296 296 296 286
313 309 300 288 290 291 298 298 298 294 293 298 297 295 293 294 294 298 294 293 290 298 300 302 299 293 291 293
312 304 295 292 293 298 300 300 292 296 292 294 295 293 293 295 295 297 295 292 286 294 297 298 300 295 297 287
306 298 290 292 297 301 300 298 295 295 295 294 293 293 294 295 296 297 295 292 290 289 293 292 293 292 292 291
292 292 291 297 300 298 299 298 297 299 296 296 292 294 296 297 297 296 292 293 290 285 288 291 293 292 290 289
287 287 292 296 297 296 296 296 294 297 296 294 293 295 296 299 298 297 293 292 288 282 284 287 288 287 290 290

GFSFLT2_sfc_thetae_084.txt.gz
Theta_e
320 320 320 321 321 321 321 320 320 316 307 302 311 311 312 309 310 309 304 308 309 302 301 303 310 308 306 307
320 320 320 321 322 322 322 321 320 314 301 313 312 312 312 310 311 311 310 310 310 305 300 305 305 305 305 299
319 320 320 321 322 321 321 321 312 306 299 314 307 310 312 308 309 309 309 312 308 302 300 297 295 298 293 295
318 319 320 320 320 319 318 318 314 301 303 302 308 309 309 310 306 304 303 301 302 296 295 294 290 291 293 294
318 318 314 307 302 299 303 300 301 301 304 308 311 307 309 306 303 298 292 297 293 291 293 297 299 298 297 295
318 318 310 303 303 304 297 304 304 305 308 308 301 304 307 297 296 291 294 293 289 296 300 300 299 300 299 297
318 309 306 306 311 307 296 301 305 305 306 306 301 301 303 299 295 293 295 291 295 300 300 300 300 301 298 298
306 306 305 311 309 308 290 294 300 303 306 307 300 307 305 302 300 295 296 295 300 300 300 299 301 295 302 301
305 302 307 308 308 303 280 297 301 308 306 301 301 302 309 304 298 298 296 292 297 297 298 299 303 297 304 300
304 306 308 307 306 289 281 294 301 300 299 300 301 304 302 306 306 300 300 297 303 301 298 301 303 302 298 297
300 308 307 301 289 283 294 292 295 298 297 295 298 298 296 297 295 291 291 295 296 300 304 296 299 299 294 285
309 309 302 293 281 290 290 296 297 297 293 296 296 297 293 294 298 298 293 289 287 295 299 296 294 294 294 286
310 307 294 285 287 290 294 294 295 290 290 295 295 293 290 291 293 300 290 288 289 297 299 299 298 293 290 293
309 299 290 289 290 297 295 296 288 291 288 291 291 291 291 293 293 297 297 294 286 295 300 298 295 294 297 292
302 293 286 287 293 299 298 294 292 291 291 291 291 289 291 295 295 295 294 293 291 289 296 292 291 290 288 289
291 287 287 293 299 296 296 295 294 293 292 291 290 289 291 294 296 294 291 292 289 285 288 292 292 293 290 290
285 284 289 293 294 294 293 293 292 295 294 289 287 290 294 296 295 294 290 290 287 281 283 288 291 291 291 289

GFSFLT2_sfc_thetae_087.txt.gz
Theta_e
320 321 321 321 322 322 322 322 321 316 307 302 313 313 313 310 311 310 306 308 311 306 304 302 308 309 306 311
319 320 321 321 322 322 323 322 320 314 301 313 314 313 313 311 312 312 310 310 311 308 305 305 303 305 307 301
319 320 320 320 322 321 322 321 314 307 300 314 308 311 313 309 310 310 310 312 309 304 303 298 295 301 296 300
318 319 319 320 320 319 319 318 314 302 303 303 309 311 311 312 307 305 304 304 303 299 297 295 286 294 297 299
318 319 315 307 303 301 306 302 301 302 304 309 311 308 310 307 305 301 295 299 295 293 295 296 297 299 299 299
319 318 310 304 305 306 298 305 304 304 307 309 302 306 309 300 299 293 296 296 292 297 300 298 297 294 295 298
318 309 307 308 311 309 298 302 305 304 306 307 303 303 305 301 297 295 295 293 295 300 297 298 295 294 294 298
306 305 307 310 309 309 291 295 301 305 307 307 301 308 306 303 300 297 297 295 299 297 297 296 299 293 302 302
304 302 309 309 309 304 282 297 301 309 306 303 303 305 309 306 299 299 299 295 298 298 296 297 302 297 304 302
305 306 308 308 306 290 284 294 301 300 299 301 302 305 304 308 307 301 301 299 303 302 300 302 303 302 300 298
299 309 307 302 290 284 295 293 295 298 297 296 298 300 297 298 296 290 292 296 297 301 303 298 302 301 298 289
309 310 301 293 284 291 291 296 297 296 293 297 297 297 294 294 300 298 292 288 288 296 300 298 296 297 297 289
309 307 295 286 287 291 295 294 294 291 291 295 295 294 293 293 295 300 290 288 288 298 300 300 300 295 293 297
309 299 291 289 290 297 296 296 290 293 289 291 292 292 291 295 294 297 300 294 288 296 300 299 298 298 300 293
301 294 286 287 293 298 298 294 292 292 292 291 292 291 292 296 296 295 296 296 292 291 298 295 292 294 292 292
291 287 288 293 298 296 296 295 295 294 292 292 291 291 292 295 296 295 292 294 291 286 291 298 294 295 292 294
287 285 289 292 294 294 293 293 293 295 295 291 288 291 293 298 297 295 292 292 290 284 285 291 294 294 294 291

GFSFLT2_sfc_thetae_090.txt.gz
Theta_e
320 321 321 322 322 323 323 323 322 318 311 306 316 318 317 314 314 314 310 311 311 307 306 302 306 306 301 306
320 320 321 321 322 323 323 321 321 317 308 317 320 317 317 315 316 316 314 314 313 310 308 307 303 301 304 296
319 320 320 321 321 323 322 321 317 312 305 317 313 315 316 312 313 314 314 313 310 306 306 300 296 298 292 298
319 320 320 320 322 322 320 320 317 308 310 308 313 314 316 314 310 309 307 307 306 301 301 298 289 291 292 296
319 319 319 316 310 309 310 306 307 307 309 314 315 313 314 311 309 305 300 302 298 296 297 298 298 296 294 294
318 318 318 309 308 309 304 310 309 308 311 312 307 310 313 305 303 300 301 299 296 301 302 299 297 296 294 295
318 315 315 312 315 313 304 307 310 308 310 311 307 307 309 306 302 299 301 298 300 304 300 298 296 296 295 294
311 313 313 315 316 314 301 300 304 309 310 310 305 312 311 306 303 299 301 300 303 300 299 297 298 293 299 297
311 308 311 315 316 312 289 302 304 314 310 306 306 307 311 308 302 302 302 299 301 300 298 297 300 296 301 298
313 312 315 314 314 298 288 298 303 302 303 304 305 308 306 310 309 302 301 301 306 303 302 304 304 304 301 301
306 315 314 311 298 292 300 297 298 301 301 299 301 303 302 301 299 294 292 297 299 303 303 300 305 303 298 290
316 315 311 302 291 295 296 301 299 300 296 300 299 300 300 298 302 300 294 290 289 298 302 300 298 298 298 291
315 315 304 293 294 297 299 298 299 296 296 298 298 298 298 297 298 302 293 290 291 300 302 303 302 298 296 297
316 308 300 294 296 300 300 299 293 296 294 296 296 297 296 299 299 299 303 295 289 298 300 303 301 300 302 291
311 304 294 294 297 302 301 297 296 295 296 295 296 295 296 298 300 299 299 300 294 292 300 297 295 298 296 298
300 299 296 297 298 299 300 299 299 298 296 297 295 295 295 297 299 299 295 299 294 288 294 301 301 295 295 299
293 295 296 296 298 297 297 297 296 297 298 295 292 295 297 301 300 298 296 297 294 289 289 295 297 296 298 296

GFSFLT2_sfc_thetae_093.txt.gz
Theta_e
321 321 322 322 323 324 324 324 322 321 314 309 317 319 319 317 317 316 312 313 312 308 307 303 307 305 301 303
321 321 322 322 323 324 323 322 321 320 310 318 321 319 320 318 318 318 316 316 315 310 307 308 305 301 300 296
320 321 322 322 322 323 321 321 320 316 307 318 315 318 319 314 316 316 316 315 312 308 306 302 299 299 293 295
320 321 321 322 323 322 322 322 320 312 313 310 316 317 319 316 313 312 310 309 307 303 303 299 291 294 294 296
319 319 320 319 313 313 314 309 310 309 312 316 318 315 316 314 312 309 303 306 300 298 301 301 300 297 295 294
319 319 319 311 309 312 306 314 313 312 315 315 309 313 316 308 307 302 305 303 298 304 304 303 300 297 294 294
318 317 316 312 318 316 307 310 312 311 312 313 309 309 312 310 305 302 303 299 302 305 302 300 298 297 294 294
313 313 315 316 319 317 303 303 306 310 312 313 308 314 314 309 306 302 303 302 305 303 301 299 299 293 299 297
313 309 312 316 319 316 291 303 305 315 312 307 308 309 315 309 303 303 303 299 301 301 299 299 302 296 301 298
314 314 316 317 316 301 290 300 305 304 304 305 305 309 309 312 311 304 304 302 307 305 303 304 304 304 299 298
309 317 317 312 300 293 302 298 300 304 302 301 303 304 303 302 300 295 296 300 300 305 305 301 304 303 296 286
319 319 315 304 292 298 298 303 302 302 299 302 301 302 301 298 302 300 297 293 290 300 304 301 298 299 296 289
320 319 308 295 295 299 301 300 301 298 298 301 300 301 300 298 299 300 293 293 292 303 303 305 302 298 293 298
320 313 302 296 297 302 302 300 295 298 295 298 298 299 298 300 298 300 302 298 291 300 303 305 303 300 301 291
316 306 296 297 298 302 302 298 297 297 298 297 298 297 297 300 300 299 301 300 297 296 301 298 297 298 297 296
301 303 296 299 299 300 303 301 300 299 298 298 297 297 296 299 302 301 296 300 296 292 294 302 303 299 295 298
298 298 299 298 299 298 299 299 298 299 300 297 294 297 298 302 302 300 298 299 295 290 292 297 299 295 300 299

GFSFLT2_sfc_thetae_096.txt.gz
Theta_e
321 322 322 323 324 324 325 325 324 321 315 308 317 320 319 318 318 316 312 314 312 307 306 302 306 304 299 301
321 321 322 323 323 324 324 323 323 321 311 318 320 319 320 317 319 318 316 317 315 309 306 307 304 299 299 292
320 321 322 322 323 324 324 322 319 317 307 318 315 318 319 314 316 316 317 316 312 307 307 300 296 298 291 293
320 321 321 323 325 323 323 323 320 312 313 310 315 317 319 317 312 313 310 309 307 302 302 298 290 293 292 294
320 320 319 319 311 314 313 308 309 309 311 315 318 315 317 314 313 309 302 307 300 296 299 302 301 299 296 294
319 319 317 310 309 311 304 314 313 312 314 315 308 313 316 308 307 301 305 302 297 303 303 303 301 299 295 294
319 315 315 311 318 317 305 310 313 310 311 312 308 309 312 309 304 301 301 298 301 305 303 300 297 297 295 294
314 312 314 314 318 318 301 304 307 310 311 313 306 314 314 309 305 300 302 300 305 302 301 298 299 293 299 297
312 308 312 315 318 315 290 303 306 314 311 306 307 309 315 309 302 302 302 298 300 299 298 299 301 296 300 297
315 314 315 315 315 301 290 300 305 304 304 306 306 308 308 312 310 303 302 301 307 304 301 303 303 304 299 297
309 317 318 311 298 293 302 298 299 302 301 301 302 303 302 301 297 291 292 298 300 304 305 300 303 301 295 284
318 319 314 303 291 298 298 303 301 300 298 301 301 301 300 297 299 296 292 290 289 298 303 300 297 298 294 286
319 317 306 294 294 297 300 298 298 296 297 300 299 299 298 297 298 297 290 291 292 301 303 303 302 296 293 296
319 313 301 296 297 301 300 299 292 297 293 296 296 296 297 300 297 299 300 296 289 299 302 305 304 300 300 290
315 304 296 296 298 302 302 297 295 294 295 295 296 295 296 299 299 298 299 297 294 293 299 298 295 296 294 296
300 302 296 298 299 298 302 300 300 298 297 297 294 295 295 297 301 300 295 298 293 288 293 300 302 299 295 297
296 297 300 298 299 298 298 298 297 300 299 295 292 296 297 302 302 299 296 296 291 286 289 294 296 293 295 299

GFSFLT2_sfc_thetae_099.txt.gz
Theta_e
322 322 322 323 323 324 324 326 325 321 312 307 312 313 317 315 317 316 311 313 311 305 303 299 303 301 295 297
321 321 322 323 323 323 324 325 324 315 306 315 314 316 317 315 317 316 315 314 313 307 304 304 302 297 295 289
321 321 323 323 323 325 325 325 316 311 304 320 312 315 315 313 314 314 314 316 312 304 304 296 291 293 287 289
320 321 322 322 324 323 323 322 320 305 310 307 313 314 313 315 311 311 309 307 302 297 296 293 288 291 290 292
320 321 316 311 304 304 308 303 305 306 309 313 315 311 315 312 311 306 297 302 298 293 296 297 298 296 294 293
318 319 313 306 306 307 300 310 311 310 312 312 306 310 313 304 303 297 300 296 292 299 302 302 299 296 293 291
318 312 309 308 313 312 300 308 311 309 310 310 306 307 310 306 301 297 297 293 297 304 302 299 297 295 293 293
310 307 307 310 312 313 296 302 305 309 311 313 305 313 312 307 302 297 299 297 303 301 299 298 299 292 299 298
306 306 308 310 310 309 284 302 305 313 308 305 305 307 313 307 299 300 297 293 298 298 298 298 300 296 301 297
309 309 311 311 308 295 286 299 305 302 300 303 303 306 307 309 307 301 297 295 303 303 300 302 302 302 299 297
304 311 312 305 291 288 299 296 297 299 298 297 300 301 299 295 291 286 287 292 297 301 303 297 301 301 293 282
310 312 308 296 285 295 294 300 297 297 294 299 297 297 295 291 294 292 287 284 285 295 300 297 295 296 293 284
315 310 299 288 288 293 297 295 295 292 293 296 295 294 292 293 293 293 286 286 288 298 299 301 299 294 293 294
314 306 294 292 293 299 298 297 289 294 289 291 292 291 291 295 295 297 294 291 285 294 299 301 300 296 300 290
308 298 289 290 296 299 300 295 292 292 292 292 292 290 292 296 297 296 296 291 287 287 293 293 291 292 291 295
294 293 289 295 299 297 299 298 297 295 293 293 291 290 291 294 298 296 292 293 288 283 288 295 298 293 290 296
289 288 292 297 298 297 297 296 295 297 296 293 289 292 293 299 298 296 292 292 286 281 284 288 291 288 291 292

GFSFLT2_sfc_thetae_102.txt.gz
Theta_e
322 322 323 323 323 323 324 325 325 320 311 304 311 311 314 313 315 314 310 311 310 304 302 298 302 300 295 297
321 322 322 323 323 323 324 325 324 315 304 316 312 314 315 313 315 315 314 313 312 307 303 303 301 296 294 288
320 321 322 322 324 325 325 325 315 310 302 319 311 313 314 312 313 313 313 315 310 303 302 295 291 292 286 289
320 321 321 322 324 322 322 322 319 301 306 306 312 313 312 314 310 309 307 306 301 296 295 291 285 289 289 291
320 320 316 306 303 299 306 301 303 305 307 311 313 310 313 311 309 304 296 300 294 291 294 296 296 294 292 291
319 319 310 305 305 306 299 308 309 309 311 310 305 308 312 303 302 296 298 295 291 297 301 301 298 296 292 291
318 310 307 306 311 311 299 305 310 308 308 309 304 305 309 304 299 296 296 291 296 302 301 298 296 295 292 292
305 306 305 309 308 311 294 300 303 307 309 310 303 311 310 305 300 296 297 294 301 300 299 297 298 291 298 297
304 304 307 308 309 307 283 300 303 311 306 304 303 305 311 305 298 298 295 290 294 296 297 297 299 295 301 298
306 308 310 310 308 292 284 297 303 300 298 301 301 304 305 305 304 297 294 293 299 301 298 301 300 302 299 295
303 309 310 303 289 286 297 294 295 296 295 295 298 298 295 292 289 285 285 290 293 299 301 295 299 299 293 283
309 310 305 294 285 293 292 298 296 295 293 296 295 295 293 290 293 290 285 283 283 293 298 294 293 295 294 285
311 308 296 286 287 292 296 294 294 290 290 294 293 292 290 290 291 291 285 284 285 296 296 297 297 293 290 294
311 301 292 291 291 297 297 295 288 291 286 289 290 289 289 294 293 295 292 288 283 292 295 298 298 294 297 289
304 296 288 289 295 298 298 293 291 290 290 289 289 288 289 294 295 294 294 289 285 286 291 289 289 289 288 294
293 292 290 293 299 296 297 296 295 294 291 291 289 289 289 292 296 295 290 291 286 282 286 292 294 290 288 292
289 290 290 295 297 296 295 295 294 295 294 291 288 290 291 297 296 294 290 290 285 280 282 286 290 287 289 291

GFSFLT2_sfc_thetae_108.txt.gz
Theta_e
321 321 322 323 324 323 324 324 325 319 305 302 308 308 312 309 312 312 308 308 308 302 301 297 300 299 294 296
320 321 323 323 323 324 323 324 323 311 300 313 311 311 310 310 312 312 311 310 309 305 300 301 298 294 292 289
320 322 323 323 326 325 325 324 312 307 297 316 308 310 310 309 310 310 310 314 307 300 300 293 290 291 286 288
321 322 322 321 326 322 320 320 316 296 301 302 308 310 309 311 307 307 304 303 298 294 293 291 285 287 287 289
321 322 311 301 298 296 303 298 300 300 303 308 309 306 310 307 305 300 294 297 293 289 292 294 294 292 291 289
319 318 307 303 302 304 294 305 306 306 308 308 302 304 308 301 299 294 295 292 288 294 298 299 296 294 291 290
317 308 304 302 307 307 296 302 307 306 306 307 301 302 306 301 296 294 292 289 293 299 297 296 294 292 290 290
307 304 302 307 307 308 291 295 301 303 305 306 299 308 307 302 297 293 294 291 295 294 294 294 294 289 295 295
301 302 305 308 309 302 282 297 301 307 300 301 300 301 306 302 295 293 292 287 290 291 293 294 295 292 297 295
303 305 308 308 305 290 282 294 299 295 295 298 298 300 298 299 298 291 291 291 294 294 295 298 296 298 295 291
299 307 308 300 288 284 294 292 292 294 292 292 294 294 292 290 287 283 282 287 289 293 297 291 293 296 289 280
307 308 300 292 284 291 290 295 293 292 289 292 291 292 290 287 290 288 283 280 280 289 294 290 288 292 289 282
309 304 294 286 287 289 293 291 290 287 287 290 290 289 287 288 289 289 283 282 282 291 293 293 293 288 286 290
306 298 291 290 290 294 294 293 285 288 284 287 288 287 286 291 291 292 290 285 281 287 291 294 293 293 293 285
301 293 288 288 293 296 296 291 288 287 287 287 286 285 287 290 292 292 291 287 284 284 287 286 284 286 284 288
291 288 288 292 298 294 295 294 292 291 289 288 286 286 287 289 292 291 285 288 283 280 283 288 289 287 284 287
287 287 290 293 295 293 293 293 292 293 291 288 285 288 289 294 292 289 285 287 282 277 279 283 286 285 286 286

GFSFLT2_sfc_thetae_111.txt.gz
Theta_e
321 322 323 324 324 324 324 324 325 318 308 305 311 312 313 312 314 314 310 311 310 306 304 300 303 301 297 299
321 322 323 324 324 324 323 324 324 315 303 314 314 313 314 313 315 315 314 314 313 307 304 304 301 297 297 294
321 322 323 325 326 325 324 324 315 309 301 318 309 312 314 311 312 312 313 313 309 303 302 297 295 295 291 292
321 322 322 322 326 320 319 319 314 301 304 303 309 311 314 313 310 309 306 305 302 299 297 296 289 291 291 293
320 321 310 301 299 299 304 301 302 301 304 309 311 308 312 310 308 303 298 300 296 293 296 296 297 295 293 292
319 318 307 303 303 304 297 305 306 306 308 309 303 305 311 304 303 297 299 295 292 297 298 299 298 296 293 293
316 308 304 304 307 309 297 303 308 307 307 308 303 303 308 304 300 297 296 293 295 299 297 297 295 294 292 292
307 305 304 308 308 310 292 296 302 305 306 308 301 309 308 305 301 296 296 294 296 294 295 294 296 290 296 296
303 302 306 309 310 303 284 298 301 307 302 302 301 302 305 305 298 296 296 290 291 292 294 294 297 293 298 296
303 306 309 309 304 291 284 295 299 295 296 298 298 300 299 300 300 294 292 293 296 295 298 298 298 299 296 293
300 307 308 300 290 285 295 293 293 294 293 293 295 295 294 292 290 286 285 288 291 294 298 293 295 298 292 285
307 308 301 292 285 291 291 295 293 293 291 293 292 292 292 290 292 290 285 284 283 291 295 293 291 294 292 285
308 303 295 287 288 290 294 292 291 288 289 291 291 290 291 290 292 292 287 285 284 292 294 295 296 292 289 294
306 297 292 290 291 295 294 293 287 290 286 288 289 288 289 293 292 294 293 290 283 289 292 297 294 294 296 288
300 294 289 289 293 296 296 291 289 289 289 289 289 288 289 292 293 293 293 290 287 286 289 289 287 289 288 290
291 288 288 291 297 294 296 295 293 292 290 290 289 288 289 291 292 293 287 291 286 282 286 290 290 291 288 289
287 287 291 292 295 293 293 293 293 294 293 290 287 289 290 295 293 291 289 290 285 280 281 287 289 287 289 289

GFSFLT2_sfc_thetae_114.txt.gz
Theta_e
322 323 324 324 325 325 325 325 325 322 312 309 318 319 317 316 317 317 313 315 314 311 309 305 307 306 302 305
322 323 323 324 326 324 324 324 324 320 308 319 322 317 318 317 318 318 316 316 316 311 308 309 306 302 302 299
321 322 322 325 327 325 324 324 320 315 306 319 313 317 318 314 315 316 317 315 313 308 307 303 301 302 296 297
321 322 320 323 324 321 322 321 316 308 310 308 313 315 318 316 313 312 310 309 309 305 305 301 292 295 296 297
320 320 316 312 309 307 312 306 307 306 308 315 315 313 316 314 312 309 301 306 302 297 299 301 301 299 297 297
319 315 315 309 309 310 305 309 310 311 312 314 307 311 316 307 306 301 303 301 298 301 302 301 300 299 297 297
318 315 312 309 313 314 306 307 311 311 310 312 306 308 310 308 304 301 299 297 298 301 299 299 297 298 295 296
313 312 310 313 316 317 301 301 305 308 309 309 304 310 309 307 304 299 299 298 299 297 298 297 298 294 299 299
312 309 312 317 318 315 292 302 304 310 307 305 304 305 307 306 300 300 299 295 296 295 296 296 299 296 302 299
314 313 317 317 315 299 291 299 303 299 300 302 302 304 304 306 303 297 297 296 299 298 299 300 299 302 300 298
308 316 317 312 298 293 299 297 297 298 297 297 298 299 299 297 295 292 292 295 295 298 299 297 300 301 298 294
316 316 313 302 293 296 296 299 297 297 296 297 296 297 297 296 297 295 293 290 289 294 298 296 295 297 297 291
315 314 305 297 297 297 299 297 295 294 294 295 296 296 295 295 296 296 291 290 290 296 297 299 300 295 293 298
315 309 302 297 298 300 298 297 293 295 292 293 294 294 293 296 295 297 298 294 288 293 295 300 299 297 299 292
309 304 297 298 298 301 300 296 294 294 294 294 294 293 293 296 297 295 297 295 291 291 294 292 292 295 294 294
299 300 298 298 300 299 300 298 298 296 295 296 294 293 293 296 297 295 291 295 292 288 289 294 295 295 293 292
294 296 298 297 299 297 297 297 296 298 297 295 292 294 295 297 296 295 293 296 291 287 288 292 293 291 292 292

GFSFLT2_sfc_thetae_117.txt.gz
Theta_e
322 323 324 324 326 326 325 326 326 325 315 311 321 322 320 319 319 319 315 316 316 312 311 307 310 308 304 307
321 323 323 324 325 324 324 325 325 322 310 321 323 320 321 319 320 320 318 319 318 313 310 312 309 305 305 300
321 322 322 325 326 325 325 325 323 318 308 319 315 319 320 315 317 318 318 317 316 310 310 305 303 304 297 299
321 321 321 323 323 320 324 322 318 311 312 309 316 317 319 318 314 314 313 311 310 306 305 301 293 295 297 299
321 320 316 316 312 310 314 309 309 307 309 315 318 315 317 315 314 311 302 307 303 299 300 302 301 300 298 298
319 319 316 310 312 315 306 312 312 312 314 315 309 312 316 308 306 302 304 302 299 302 303 302 301 299 298 298
318 316 315 311 317 318 308 308 312 311 312 312 307 309 310 308 304 301 301 298 301 301 300 300 298 299 297 297
312 315 313 317 320 320 303 304 306 311 311 309 306 311 310 307 304 300 301 299 301 299 299 298 299 295 301 301
315 312 314 321 322 318 294 304 306 312 309 306 306 307 310 307 301 300 299 297 297 298 297 297 300 298 302 301
316 315 320 321 319 302 293 301 306 302 302 304 304 306 305 308 305 300 300 298 301 300 300 301 302 303 302 302
312 319 321 317 301 295 302 300 300 300 300 300 301 300 300 299 297 294 295 297 297 300 301 299 302 301 299 294
318 319 317 305 295 299 300 302 300 299 298 299 299 299 299 298 299 298 295 292 290 295 299 299 296 298 298 291
318 317 308 298 299 302 303 300 298 296 297 298 298 298 298 298 298 298 293 292 292 298 298 301 300 297 294 299
317 313 304 299 302 304 302 302 297 299 296 296 296 297 296 299 298 298 300 296 290 296 296 300 301 298 300 294
316 306 298 301 302 305 303 300 299 298 298 297 297 296 296 298 299 298 299 296 293 294 296 295 294 297 296 296
299 299 297 302 303 303 303 300 301 300 299 299 297 296 296 298 301 298 295 297 295 291 292 297 298 297 294 295
293 295 300 300 302 301 301 300 299 301 301 298 295 297 297 300 299 298 296 298 294 290 290 294 296 293 294 293

GFSFLT2_sfc_thetae_120.txt.gz
Theta_e
323 322 324 324 326 327 326 326 326 325 316 310 320 322 320 319 320 318 314 316 315 311 310 306 311 307 302 306
322 322 323 324 327 325 325 326 326 321 311 320 322 319 320 318 321 320 318 320 318 313 310 311 308 304 304 298
322 322 323 323 328 327 326 326 321 318 309 320 315 318 320 314 316 318 319 317 315 311 310 303 298 302 293 296
322 322 323 322 326 322 323 325 319 310 312 309 315 317 319 318 314 314 312 311 309 304 304 298 289 292 293 296
321 321 318 315 310 309 314 309 309 307 309 314 318 314 316 314 314 310 303 307 300 297 298 300 299 298 296 296
320 319 316 311 311 313 306 312 312 311 312 313 307 311 316 307 306 300 304 300 297 300 301 301 299 298 296 296
319 314 315 312 317 318 308 307 310 310 312 311 306 308 310 307 302 300 301 296 300 301 299 299 296 296 295 296
314 314 312 318 319 320 302 302 305 309 312 310 305 312 311 307 303 300 300 299 301 298 298 297 297 293 299 300
311 312 314 321 322 318 291 304 306 312 309 305 307 307 312 306 300 300 300 297 297 297 296 296 299 295 300 299
314 316 318 321 318 300 291 300 305 303 301 304 305 306 305 308 308 300 300 298 302 301 298 299 301 302 300 301
309 319 321 316 298 293 304 299 300 302 301 301 301 301 300 300 296 293 294 298 297 300 301 297 302 301 295 289
315 319 315 306 294 301 300 304 302 300 297 300 299 300 299 297 300 297 293 291 289 296 298 299 295 296 295 287
311 316 307 295 296 301 304 300 299 296 297 298 298 298 298 298 298 297 291 291 292 298 298 300 298 295 290 298
314 311 301 297 300 306 305 302 296 298 296 296 295 296 296 300 298 299 299 295 288 296 296 299 300 297 299 290
312 304 294 297 302 306 305 301 299 298 299 297 297 296 296 298 301 298 299 296 292 292 296 294 292 294 293 293
299 297 294 299 303 304 305 303 302 302 299 299 297 297 296 298 301 300 296 296 292 289 291 296 298 295 292 291
290 291 295 297 300 303 301 300 299 303 302 299 295 298 298 301 300 299 296 297 292 286 288 292 294 292 294 292

GFSFLT2_sfc_thetae_123.txt.gz
Theta_e
323 323 322 324 324 327 327 327 327 324 314 311 315 315 318 315 317 318 314 314 312 307 306 302 307 305 299 302
323 322 322 323 325 327 326 326 327 318 307 316 315 316 317 315 318 317 317 316 314 311 306 306 304 300 298 292
322 322 322 323 324 328 328 327 317 311 305 319 312 315 315 313 314 315 315 317 312 306 306 298 291 293 287 291
322 322 321 322 323 322 321 324 322 304 309 306 313 314 313 315 311 311 311 308 304 299 297 291 284 288 288 291
321 321 315 310 305 304 308 305 305 304 307 310 314 311 313 311 311 306 297 303 294 290 292 294 295 293 291 290
320 319 313 306 307 308 303 310 309 308 311 310 305 309 312 303 301 295 298 293 290 295 298 298 296 294 291 291
319 312 309 309 312 313 302 307 308 307 309 309 304 305 307 302 298 295 295 289 295 300 298 295 294 292 291 291
311 309 308 315 314 314 294 299 303 307 310 309 303 309 308 304 299 296 296 293 298 297 295 294 294 289 297 297
305 307 310 315 314 310 283 302 304 311 308 303 305 305 308 303 298 296 293 291 294 293 293 294 296 292 298 296
309 310 313 314 311 294 286 299 303 300 299 302 302 305 303 305 303 297 296 294 298 297 294 297 298 299 297 297
301 311 314 309 289 287 301 297 297 300 297 297 298 298 297 295 291 287 287 293 294 297 299 293 298 295 289 279
308 307 308 299 288 296 296 302 300 298 294 297 295 297 295 293 295 292 288 286 285 293 295 294 291 291 290 279
311 306 300 290 291 296 300 297 297 291 292 295 294 294 292 293 293 292 287 286 288 294 295 296 295 291 287 294
305 303 294 293 296 302 301 298 291 293 290 292 291 291 291 295 295 296 294 290 284 292 295 296 297 292 295 286
305 296 289 292 298 302 302 297 294 293 293 292 292 291 292 295 298 296 295 291 287 288 291 290 289 291 289 289
294 291 290 293 301 300 301 299 297 297 294 293 292 291 292 295 298 296 292 292 288 284 287 292 294 291 288 287
287 287 288 293 297 299 298 298 296 298 297 294 291 293 293 298 297 295 293 293 287 282 283 288 291 288 291 289

GFSFLT2_sfc_thetae_129.txt.gz
Theta_e
322 321 322 322 323 323 325 325 326 321 311 306 312 313 319 311 313 313 309 310 309 303 303 299 304 302 297 298
321 321 321 323 323 323 325 325 326 315 301 315 312 313 313 311 313 314 313 312 311 307 303 304 298 295 292 288
321 320 322 321 323 323 326 326 313 309 301 317 309 312 312 310 311 311 312 315 309 303 301 292 287 290 285 287
321 320 320 320 321 320 321 323 320 305 307 304 308 311 310 312 308 308 306 305 300 295 292 287 282 285 284 288
321 319 315 306 302 300 308 300 302 304 303 308 311 307 311 309 307 302 295 299 294 289 291 292 291 289 288 287
320 318 311 303 303 304 297 306 307 307 307 306 302 305 309 302 301 295 296 291 290 296 295 294 292 290 288 287
318 309 305 306 309 309 295 301 307 305 305 306 301 301 306 301 296 293 292 289 293 297 294 292 290 288 288 288
307 303 304 312 311 309 287 292 301 304 306 306 300 307 306 301 296 292 293 291 295 294 292 290 291 285 293 293
303 299 306 309 311 301 279 296 300 308 305 302 301 301 304 300 293 294 292 290 291 291 290 290 292 290 294 293
308 307 306 309 306 289 281 294 300 299 298 299 300 302 300 301 299 294 292 292 295 293 291 293 294 296 294 291
298 307 306 304 288 281 294 294 295 297 295 294 296 297 295 292 290 286 285 290 291 294 295 290 293 293 287 278
310 307 304 297 280 288 292 298 296 294 292 294 294 294 291 289 292 289 286 284 283 291 293 290 287 288 287 276
315 305 297 288 287 290 295 295 294 289 289 293 292 291 290 290 292 291 286 284 285 291 291 294 293 288 285 290
313 300 292 290 293 298 299 296 290 291 287 289 289 289 288 292 293 293 291 289 283 289 292 294 294 289 294 284
307 294 284 285 293 300 300 295 293 290 290 289 289 288 289 292 294 293 292 288 285 284 288 288 288 289 287 286
292 289 285 289 298 296 299 298 295 293 291 291 288 288 289 291 296 294 290 289 284 282 285 289 292 290 288 286
287 285 289 289 293 293 295 295 295 296 294 291 288 290 290 295 295 293 290 290 284 280 282 286 288 286 288 286

GFSFLT2_sfc_thetae_132.txt.gz
Theta_e
322 321 320 320 321 323 324 326 326 320 309 303 310 316 315 311 312 312 307 309 307 303 302 298 302 300 296 296
322 321 320 320 321 323 324 325 326 313 300 311 311 312 314 310 312 313 312 311 309 305 302 302 296 292 291 287
322 322 321 320 322 322 325 326 313 305 298 316 308 310 311 309 310 310 310 313 308 301 300 290 286 288 284 286
322 322 320 319 322 321 320 322 319 302 305 303 308 309 308 311 307 307 305 304 298 294 291 287 281 283 284 286
322 321 314 305 301 299 306 301 300 301 301 306 309 305 309 308 306 301 294 297 293 289 292 291 289 288 286 286
321 319 310 302 302 304 298 304 305 307 307 305 301 304 309 302 300 295 295 291 289 295 295 293 291 289 286 286
320 306 300 304 309 307 295 298 304 304 305 305 300 300 306 300 296 293 292 288 291 296 294 291 289 287 286 286
304 302 302 307 310 306 287 290 300 304 304 304 299 305 306 301 294 293 291 290 294 293 291 289 290 284 291 291
305 301 304 306 309 299 279 295 299 307 303 301 300 300 303 298 293 293 292 290 290 290 289 290 291 287 293 292
308 308 307 307 305 287 279 292 299 298 297 298 298 300 299 300 298 294 291 291 293 292 291 292 292 295 292 290
300 307 306 305 290 281 292 292 293 296 294 293 295 296 294 291 289 285 285 288 290 292 294 289 292 291 287 278
313 306 305 297 281 288 289 297 295 294 292 293 293 293 291 288 290 288 284 284 282 290 293 288 287 287 286 277
319 309 298 290 285 287 293 295 293 288 289 291 291 289 289 288 291 290 286 283 284 290 291 293 292 287 285 288
317 305 291 287 291 296 299 296 291 291 287 288 289 288 287 291 292 292 290 288 282 287 290 293 293 289 292 285
309 297 286 285 289 298 300 294 293 291 290 288 289 287 288 291 293 291 291 287 284 283 287 286 287 289 287 285
295 292 287 290 294 293 296 297 295 294 290 290 288 287 288 289 294 292 289 288 284 280 284 287 291 289 287 286
288 287 290 292 293 290 292 294 295 295 293 290 288 289 289 294 294 292 289 289 283 279 281 285 286 285 286 286

GFSFLT2_sfc_thetae_135.txt.gz
Theta_e
322 322 323 322 321 321 324 325 325 321 312 304 313 320 315 313 315 314 310 312 310 307 306 302 305 303 300 299
322 322 322 322 321 323 324 325 326 317 303 311 313 315 314 312 314 316 314 313 313 308 306 306 298 296 296 293
323 323 322 321 321 322 325 325 313 308 301 318 309 311 314 310 312 313 314 313 311 304 302 295 292 293 290 291
323 323 322 319 319 320 321 322 319 304 306 304 309 310 313 312 309 309 308 307 302 298 296 293 288 288 289 290
324 322 314 305 302 301 309 301 301 300 302 309 310 307 310 310 308 305 299 301 297 294 296 295 293 292 291 290
323 320 309 304 303 304 298 304 306 306 308 307 303 305 310 304 303 298 298 296 293 298 298 295 294 292 290 290
321 305 300 304 307 308 297 299 303 303 304 306 301 302 307 302 300 295 295 292 295 297 296 293 292 291 290 289
305 303 301 307 306 308 290 291 298 303 304 305 300 305 307 303 298 295 293 293 296 295 294 292 292 288 293 293
311 303 301 306 308 301 281 295 299 308 303 300 300 301 306 301 295 294 294 293 293 292 292 292 293 291 296 294
309 309 308 306 305 288 280 292 299 298 298 300 299 300 300 301 300 295 295 294 297 295 294 294 294 296 295 292
308 309 308 305 290 282 293 291 294 297 296 295 296 297 295 293 292 289 288 292 292 295 295 292 296 294 291 286
315 310 303 297 282 288 290 297 295 295 293 294 294 294 292 291 293 290 287 286 286 292 294 291 291 291 291 285
315 313 299 289 284 288 293 294 294 292 291 293 293 292 290 290 292 291 289 285 287 292 293 295 295 291 289 291
315 306 293 288 290 294 297 296 291 293 290 289 290 290 288 292 293 293 293 290 286 290 293 296 296 293 294 288
311 299 286 289 291 296 295 295 293 292 292 289 290 289 290 293 294 292 293 290 289 287 291 289 290 292 291 288
293 292 289 291 296 294 295 294 296 294 292 291 289 289 290 292 295 293 290 290 287 283 286 290 292 293 291 290
280 286 291 292 294 294 292 292 293 296 295 292 289 290 290 295 294 293 291 291 286 282 285 289 291 289 289 288

GFSFLT2_sfc_thetae_138.txt.gz
Theta_e
324 324 324 324 323 322 323 325 326 322 313 308 319 328 323 319 320 317 312 315 314 310 310 306 309 307 304 306
325 325 324 324 323 324 323 325 326 321 306 316 322 322 320 317 319 319 317 317 316 311 309 310 305 302 302 298
326 326 325 324 322 323 325 325 318 313 304 319 314 319 319 314 317 317 318 316 315 310 308 304 299 300 295 296
326 325 324 321 322 321 323 323 321 308 309 307 314 316 319 317 313 314 312 311 310 306 305 302 294 294 294 295
323 324 317 315 310 308 313 307 307 306 306 312 315 313 316 314 313 310 303 307 302 299 302 304 302 299 297 296
320 320 310 310 308 309 303 310 309 309 312 312 307 311 316 308 307 302 304 301 299 303 303 302 299 298 296 296
319 313 308 308 312 313 304 305 308 307 308 310 306 308 311 309 305 302 302 299 301 301 301 299 297 298 296 296
315 317 306 310 313 315 298 298 300 306 308 309 304 312 313 309 304 301 302 301 304 299 299 298 299 295 299 297
314 315 310 314 316 311 284 299 301 310 308 304 305 304 313 308 302 301 301 299 298 297 297 298 300 296 299 297
308 315 315 318 313 295 284 296 302 301 300 303 302 303 305 307 307 302 300 301 300 300 299 298 299 301 299 298
301 313 314 308 294 288 296 294 297 300 300 298 299 300 300 299 297 294 294 298 298 299 300 297 299 299 295 291
309 312 310 298 286 293 293 300 299 298 296 298 298 298 298 297 301 299 296 294 291 297 299 298 296 296 295 292
311 314 303 287 290 293 296 294 296 295 295 297 298 297 297 297 299 299 294 293 293 297 298 298 299 295 292 297
310 308 295 290 294 300 298 297 291 295 293 295 293 295 295 300 298 301 303 297 291 295 297 300 299 298 299 291
312 299 287 289 294 301 299 293 293 293 294 295 295 293 295 298 300 299 302 300 296 292 296 295 295 294 294 295
294 295 289 291 295 294 300 296 296 294 294 296 294 294 294 298 300 299 295 301 297 291 292 295 297 299 296 296
287 289 292 292 294 293 294 294 293 297 296 294 292 295 297 299 299 298 297 297 295 289 289 293 295 293 296 297

GFSFLT2_sfc_thetae_141.txt.gz
Theta_e
327 327 327 327 327 325 324 324 326 323 312 309 320 324 323 322 321 318 313 314 314 310 311 307 311 309 305 307
326 326 327 327 326 324 324 325 326 319 308 318 322 323 323 318 321 320 317 317 316 312 311 312 308 305 305 299
323 324 325 326 324 324 325 325 321 316 306 316 314 322 321 315 317 318 319 318 316 311 310 305 302 303 296 299
321 322 323 324 322 322 324 324 320 309 310 307 314 317 321 317 314 315 313 312 311 306 305 303 295 298 298 299
319 320 319 313 312 311 314 309 309 308 307 313 317 314 318 315 314 311 304 309 303 300 302 305 304 302 300 298
315 318 316 309 308 310 303 309 310 310 313 314 308 311 317 309 308 303 306 304 300 305 306 304 302 301 298 298
315 318 312 308 314 316 305 304 308 308 309 311 307 308 312 309 306 303 303 301 303 303 303 302 299 299 298 298
315 318 311 315 317 319 298 299 303 307 309 310 304 312 314 310 306 302 304 303 306 302 301 299 300 296 302 300
306 310 315 319 318 316 286 302 303 312 309 305 306 306 315 310 303 303 304 301 301 301 299 300 303 299 300 298
306 308 312 316 314 296 286 297 304 302 301 304 305 306 308 312 310 304 304 303 305 303 302 302 303 303 299 299
300 308 310 310 294 288 299 296 298 302 301 300 301 302 302 302 299 295 296 300 300 302 303 298 301 300 297 292
308 307 307 298 287 292 295 301 300 301 298 300 300 300 300 298 302 300 297 294 292 300 302 300 298 298 297 292
308 308 301 290 288 292 296 296 298 294 295 300 299 299 298 298 301 301 295 295 295 302 301 302 302 298 294 299
309 306 295 289 292 297 300 299 292 295 291 295 295 297 297 301 300 303 304 299 294 298 298 301 301 299 302 292
309 298 289 289 291 295 298 296 295 293 295 294 297 296 296 300 303 302 303 300 297 294 297 295 296 296 296 296
294 293 289 291 295 293 296 295 297 296 295 296 295 295 296 299 304 303 297 300 298 292 293 299 302 300 297 297
287 290 291 291 294 293 293 293 291 295 297 294 291 296 298 304 303 302 298 300 296 291 292 294 297 295 298 299

GFSFLT2_sfc_thetae_144.txt.gz
Theta_e
323 324 324 326 327 327 326 325 325 323 310 306 319 324 322 321 321 318 313 315 313 309 310 306 311 308 303 305
321 322 323 324 324 326 325 325 326 319 306 318 320 318 321 319 320 319 318 318 317 311 308 310 308 303 303 297
318 319 320 322 324 326 325 327 319 314 305 321 312 317 321 315 316 317 318 317 316 308 308 302 298 301 294 296
317 318 317 322 325 320 323 323 319 309 311 307 313 314 322 318 313 313 312 310 309 303 303 299 291 295 296 298
317 316 315 313 310 310 313 309 309 307 309 313 316 312 318 314 313 310 302 307 300 297 300 302 302 300 298 297
315 314 315 308 306 308 300 308 307 309 312 314 306 310 316 307 307 301 304 302 298 303 305 304 302 300 297 296
313 317 315 309 316 316 303 304 307 305 306 310 306 306 311 308 304 301 301 298 301 306 304 301 299 299 296 295
311 306 311 317 319 317 297 298 302 305 307 309 303 311 312 309 304 300 302 301 304 303 301 299 300 295 301 300
304 301 307 311 314 312 284 302 303 312 309 303 305 305 311 308 301 301 302 299 301 300 299 300 301 297 302 299
304 305 307 307 311 295 284 297 303 300 301 303 303 307 305 310 308 302 302 301 306 304 302 304 303 303 299 298
299 306 305 305 292 286 297 296 298 301 299 299 300 302 300 300 297 293 294 299 300 302 304 298 301 300 294 287
308 306 301 298 285 290 292 299 300 300 297 300 299 300 298 296 301 299 295 292 290 299 301 298 295 295 294 289
308 306 295 287 286 290 294 295 297 292 294 298 298 297 296 296 300 301 293 293 293 302 302 301 299 295 291 297
306 301 290 285 288 294 295 294 290 294 290 294 294 295 295 299 298 302 303 297 291 299 299 301 300 297 299 289
304 295 285 286 288 293 293 289 290 292 293 292 293 293 295 299 301 301 302 299 295 294 296 294 293 294 293 294
292 292 288 289 293 291 294 291 292 290 289 293 292 292 293 297 302 301 296 300 295 290 291 298 299 297 294 295
285 287 291 290 292 290 290 290 290 292 293 291 288 293 295 300 300 298 298 299 293 287 289 292 295 293 296 296